Radioactive Concentration measured by Seawater Radiation Monitor near Fukushima Daiichi Nuclear Power Station
Date,Time,Cs137(Bq/L),Cs134(Bq/L),Total β(Bq/L)
2018/04/25,00:00,0.097,ND,11
2018/04/25,00:10,0.10,ND,9.3
2018/04/25,00:20,0.095,ND,ND
2018/04/25,00:30,0.099,ND,ND
2018/04/25,00:40,ND,ND,ND
2018/04/25,00:50,0.091,ND,ND
2018/04/25,01:00,0.090,ND,ND
2018/04/25,01:10,0.072,ND,ND
2018/04/25,01:20,0.061,ND,ND
2018/04/25,01:30,0.093,ND,ND
2018/04/25,01:40,0.099,ND,ND
2018/04/25,01:50,0.11,ND,ND
2018/04/25,02:00,0.088,ND,ND
2018/04/25,02:10,0.12,ND,ND
2018/04/25,02:20,0.15,ND,ND
2018/04/25,02:30,0.15,ND,ND
2018/04/25,02:40,0.16,ND,ND
2018/04/25,02:50,0.17,ND,ND
2018/04/25,03:00,0.17,ND,ND
2018/04/25,03:10,0.20,ND,ND
2018/04/25,03:20,0.18,ND,ND
2018/04/25,03:30,0.18,ND,ND
2018/04/25,03:40,0.17,ND,ND
2018/04/25,03:50,0.13,ND,ND
2018/04/25,04:00,0.18,ND,ND
2018/04/25,04:10,0.18,ND,ND
2018/04/25,04:20,0.18,ND,ND
2018/04/25,04:30,0.21,ND,ND
2018/04/25,04:40,0.20,ND,ND
2018/04/25,04:50,0.17,ND,ND
2018/04/25,05:00,0.17,ND,ND
2018/04/25,05:10,0.19,ND,ND
2018/04/25,05:20,0.16,ND,ND
2018/04/25,05:30,0.18,ND,ND
2018/04/25,05:40,0.14,ND,ND
2018/04/25,05:50,0.12,ND,ND
2018/04/25,06:00,0.11,ND,ND
2018/04/25,06:10,0.095,ND,ND
2018/04/25,06:20,0.091,ND,ND
2018/04/25,06:30,0.086,ND,ND
2018/04/25,06:40,0.086,ND,ND
2018/04/25,06:50,0.076,ND,ND
2018/04/25,07:00,0.078,ND,ND
2018/04/25,07:10,0.076,ND,ND
2018/04/25,07:20,0.075,ND,ND
2018/04/25,07:30,0.060,ND,ND
2018/04/25,07:40,ND,ND,ND
2018/04/25,07:50,0.054,ND,ND
2018/04/25,08:00,0.051,ND,ND
2018/04/25,08:10,0.052,ND,ND
2018/04/25,08:20,0.056,ND,ND
2018/04/25,08:30,0.066,ND,ND
2018/04/25,08:40,0.066,ND,ND
2018/04/25,08:50,0.070,ND,ND
2018/04/25,09:00,0.076,ND,ND
2018/04/25,09:10,0.082,ND,ND
2018/04/25,09:20,0.12,ND,ND
2018/04/25,09:30,0.12,ND,ND
2018/04/25,09:40,0.095,ND,ND
2018/04/25,09:50,0.10,ND,ND
2018/04/25,10:00,0.097,ND,ND
2018/04/25,10:10,0.10,ND,ND
2018/04/25,10:20,0.089,ND,ND
2018/04/25,10:30,0.094,ND,ND
2018/04/25,10:40,0.092,ND,ND
2018/04/25,10:50,0.084,ND,ND
2018/04/25,11:00,0.082,ND,ND
2018/04/25,11:10,0.082,ND,ND
2018/04/25,11:20,0.078,ND,ND
2018/04/25,11:30,0.083,ND,ND
2018/04/25,11:40,0.052,ND,ND
2018/04/25,11:50,0.064,ND,ND
2018/04/25,12:00,0.063,ND,ND
2018/04/25,12:10,0.11,ND,ND
2018/04/25,12:20,0.13,ND,ND
2018/04/25,12:30,0.084,ND,ND
2018/04/25,12:40,0.076,ND,ND
2018/04/25,12:50,0.072,ND,ND
2018/04/25,13:00,0.15,ND,ND
2018/04/25,13:10,0.16,ND,ND
2018/04/25,13:20,0.15,ND,ND
2018/04/25,13:30,0.16,ND,ND
2018/04/25,13:40,0.17,ND,ND
2018/04/25,13:50,0.16,ND,9.6
2018/04/25,14:00,0.17,ND,11
2018/04/25,14:10,0.17,ND,11
2018/04/25,14:20,0.18,ND,ND
2018/04/25,14:30,0.098,ND,ND
2018/04/25,14:40,0.16,ND,ND
2018/04/25,14:50,0.17,ND,ND
2018/04/25,15:00,0.17,ND,ND
2018/04/25,15:10,0.17,ND,ND
2018/04/25,15:20,0.16,ND,ND
2018/04/25,15:30,0.16,ND,ND
2018/04/25,15:40,0.15,ND,9.7
2018/04/25,15:50,0.14,ND,ND
2018/04/25,16:00,0.13,ND,ND
2018/04/25,16:10,0.15,ND,11
2018/04/25,16:20,0.17,ND,ND
2018/04/25,16:30,0.18,ND,ND
2018/04/25,16:40,0.19,ND,ND
2018/04/25,16:50,0.21,ND,ND
2018/04/25,17:00,0.23,ND,ND
2018/04/25,17:10,0.22,ND,ND
2018/04/25,17:20,0.22,ND,ND
2018/04/25,17:30,0.22,ND,ND
2018/04/25,17:40,0.22,ND,ND
2018/04/25,17:50,0.20,ND,ND
2018/04/25,18:00,0.20,ND,ND
2018/04/25,18:10,0.20,ND,ND
2018/04/25,18:20,0.20,ND,ND
2018/04/25,18:30,0.20,ND,ND
2018/04/25,18:40,0.22,ND,ND
2018/04/25,18:50,0.23,ND,ND
2018/04/25,19:00,0.22,ND,ND
2018/04/25,19:10,0.20,ND,ND
2018/04/25,19:20,0.17,ND,ND
2018/04/25,19:30,0.19,ND,ND
2018/04/25,19:40,0.17,ND,ND
2018/04/25,19:50,0.18,ND,ND
2018/04/25,20:00,0.18,ND,9.3
2018/04/25,20:10,0.18,ND,ND
2018/04/25,20:20,0.14,ND,ND
2018/04/25,20:30,0.17,ND,ND
2018/04/25,20:40,0.17,ND,ND
2018/04/25,20:50,0.14,ND,ND
2018/04/25,21:00,0.11,ND,ND
2018/04/25,21:10,0.096,ND,ND
2018/04/25,21:20,0.090,ND,ND
2018/04/25,21:30,ND,ND,ND
2018/04/25,21:40,ND,ND,ND
2018/04/25,21:50,0.10,ND,ND
2018/04/25,22:00,0.096,ND,ND
2018/04/25,22:10,0.058,ND,ND
2018/04/25,22:20,0.061,ND,ND
2018/04/25,22:30,0.13,ND,ND
2018/04/25,22:40,0.060,ND,ND
2018/04/25,22:50,0.10,ND,11
2018/04/25,23:00,0.094,ND,13
2018/04/25,23:10,0.049,ND,14
2018/04/25,23:20,ND,ND,14
2018/04/25,23:30,ND,ND,15
2018/04/25,23:40,ND,ND,16
2018/04/25,23:50,ND,ND,9.6
